Location: Buchdorf
(48.7842°N, 10.8275°E)
Time: 23:15:36
(UTC+00:00)

Cosmos 1833 Rocket - Pass Details

Date: 09 April 2020
Orbit: 834 x 838 km, 71.0° (Epoch: 27 May)

Event Time Altitude Azimuth Distance (km) Brightness Sun altitude
Exits shadow 20:39:26 46° 92° (E) 1,110 3.0 -23.4°
Drops below altitude 10° 20:44:16 10° 37° (NE) 2,460 5.2 -24.0°
Sets 20:46:47 0° 32° (NNE) 3,398 6.0 -24.3°
